パンスターズ彗星

C/2015 T2 ( PanSTARRS )

English version
Home page
Updated on May 20, 2019

---------------------------------------------------------------------

・ プロフィール

発見日 2015年10月9日
発見光度 21.8等
発見者 Pan-STARRS 1 telescope (Haleakala)

・ 写真集

・ 軌道要素

Epoch 2017 May 7.0 TT = JDT 2457880.5
T 2017 May 20.44957 TT                                  MPCW
q   6.9353621            (2000.0)            P               Q
z  -0.0000516      Peri.   30.76255     +0.76567328     +0.05755519
 +/-0.0000007      Node    51.06043     +0.27838102     -0.92753114
e   1.0003579      Incl.  124.54724     +0.57986932     +0.36928768
From 192 observations 2015 Oct. 9-2018 Dec. 5, mean residual 0".4.

・ 光度変化

        m1 = 2.0 + 5 logΔ + 15.0 log r(t - 200)

---------------------------------------------------------------------

軌道要素はM.P.E.C. 2019-J142に掲載されたものです。
光度グラフはComet for Windowsで作成したものです。

---------------------------------------------------------------------

Copyright(C) Seiichi Yoshida (comet@aerith.net). All rights reserved.